Location: Berbisdorf
(50.7638°N, 12.9442°E)
Time: 23:49:55
(UTC+00:00)

GEOS 3 Rocket - Visible Passes

Search period start: 01 October 2020 00:00
Search period end: 11 October 2020 00:00
Orbit: 770 x 849 km, 115.0° (Epoch: 01 October)

Date Brightness Start Highest point End Pass type
(mag) Time Alt. Az. Time Alt. Az. Time Alt. Az.
03 Oct 6.9 17:10:57 10° SW 17:13:05 12° WSW 17:15:14 10° W visible
06 Oct 6.9 17:38:12 10° SW 17:39:44 11° WSW 17:41:17 10° W visible
07 Oct 6.4 17:11:43 10° SSW 17:15:30 20° WSW 17:19:19 10° WNW visible
10 Oct 6.4 17:38:35 10° SSW 17:42:08 18° WSW 17:45:43 10° WNW visible
